Tracking 19280 objects as of 15-Nov-2018
HD Live streaming from Space Station
objects crossing your sky now

FLOCK 3P 45

Track FLOCK 3P 45 now!
10-day predictions
FLOCK 3P 45 is classified as:


NORAD ID: 42005
Int'l Code: 2017-008BK
Perigee: 491.3 km
Apogee: 501.7 km
Inclination: 97.4 °
Period: 94.4 minutes
Semi major axis: 6867 km
RCS: Unknown
Launch date: February 15, 2017
Source: United States (US)
Launch site: SRIHARIKOTA (SRI)
aabbcc
Your satellite tracking list
Your tracking list is empty




NASA's NSSDC Master Catalog

Two Line Element Set (TLE):
1 42005U 17008BK  18318.92235490 +.00002655 +00000-0 +10772-3 0  9990
2 42005 097.4343 023.1007 0007526 188.8198 171.2909 15.25478736097091
Source of the keplerian elements: AFSPC